EA8CHC Sevilla ES current weather conditions

sailwx.info

Wind from 277 at 1 knots gusting 6

Air temperature 27.2° C
Dewpoint 15.2° C

Last reported at 2017-May-30 12:07 UTC.
Time now 2017-May-30 13:02 UTC

Location: N 37°26' W 006°03'.
View on Google Maps.

See reports from other nearby stations

  
Tides and Currents Weather Stations Pressure Air Temp Water Temp Dewpoint Dewpoint Depression Visibility Wind Speed Wind Dir Waves Ship Positions
date/time (UTC)wind fromknots sea level pressurealtimeterstation pressurevisibilityair tempwater tempwave heightnotes
2017-May-30 12:07 277 1 gusting 6 27.2
2017-May-30 12:02 214 1 gusting 6 27.2
2017-May-30 11:57 262 1 gusting 6 26.7
2017-May-30 11:52 180 2 gusting 6 26.7
2017-May-30 11:47 173 1 gusting 6 26.7
2017-May-30 11:42 094 2 gusting 6 26.7
2017-May-30 11:37 193 2 gusting 6 26.7
2017-May-30 11:32 151 1 gusting 5 26.7
2017-May-30 11:27 155 0 gusting 5 26.1
2017-May-30 11:22 263 1 gusting 6 25.6
2017-May-30 11:17 117 2 gusting 6 25.6
2017-May-30 11:12 109 1 gusting 6 26.1
2017-May-30 11:07 108 0 gusting 6 25.6
2017-May-30 11:02 128 0 gusting 6 25.6
2017-May-30 10:57 092 2 gusting 6 25.0
2017-May-30 10:52 109 1 gusting 6 25.0
2017-May-30 10:47 070 1 gusting 6 25.0
2017-May-30 10:42 125 2 gusting 6 25.0
2017-May-30 10:37 094 1 gusting 6 25.0
2017-May-30 10:32 061 1 gusting 6 24.4
2017-May-30 10:27 342 2 gusting 6 24.4
2017-May-30 10:22 122 0 gusting 8 24.4
2017-May-30 10:17 065 1 gusting 8 23.9
2017-May-30 10:12 23.9
2017-May-30 10:07 070 1 gusting 6 23.9
2017-May-30 10:02 065 1 gusting 6 23.3
2017-May-30 09:57 057 1 gusting 6 23.3
2017-May-30 09:52 010 1 gusting 6 23.3
2017-May-30 09:47 058 2 gusting 6 23.3
2017-May-30 09:42 162 1 gusting 5 23.3
2017-May-30 09:37 204 1 gusting 5 23.3
2017-May-30 09:32 132 1 gusting 4 22.8
2017-May-30 09:27 113 1 gusting 4 22.8
2017-May-30 09:22 059 0 gusting 4 22.8
2017-May-30 09:17 099 1 gusting 4 22.2
2017-May-30 09:12 041 1 gusting 4 22.2
2017-May-30 09:07 089 0 gusting 4 22.2
2017-May-30 09:02 101 0 gusting 4 21.7
2017-May-30 08:57 068 1 gusting 4 21.7
2017-May-30 08:52 091 1 gusting 6 21.1
2017-May-30 08:47 057 1 gusting 6 21.1
2017-May-30 08:42 103 1 gusting 6 21.1
2017-May-30 08:37 174 0 gusting 3 21.1
2017-May-30 08:32 157 0 gusting 3 20.6
2017-May-30 08:27 082 0 gusting 3 20.6
2017-May-30 08:22 141 0 gusting 2 20.6
2017-May-30 08:17 092 20.6
2017-May-30 08:12 089 0 gusting 2 20.6
2017-May-30 08:07 089 0 gusting 2 20.0
2017-May-30 08:02 086 0 gusting 1 20.0
2017-May-30 07:57 086 20.6
2017-May-30 07:52 106 20.0
2017-May-30 07:47 024 20.0
2017-May-30 07:42 030 0 gusting 2 19.4
2017-May-30 07:37 055 0 gusting 2 19.4
2017-May-30 07:32 048 19.4
2017-May-30 07:27 022 19.4
2017-May-30 07:22 022 18.9
2017-May-30 07:17 022 18.9
2017-May-30 07:12 022 18.9
2017-May-30 07:07 022 0 gusting 2 18.3
2017-May-30 07:02 022 0 18.3
2017-May-30 06:57 313 18.3
2017-May-30 06:52 313 17.8
2017-May-30 06:47 313 17.8
2017-May-30 06:42 313 17.8
2017-May-30 06:37 313 17.2
2017-May-30 06:32 313 17.2
2017-May-30 06:27 313 17.2
2017-May-30 06:22 313 17.2
2017-May-30 06:17 313 16.7
2017-May-30 06:12 313 16.7
2017-May-30 06:07 313 16.7
2017-May-30 06:02 313 16.1
2017-May-30 05:57 313 16.1
2017-May-30 05:52 313 16.1
2017-May-30 05:47 313 16.1
2017-May-30 05:42 313 16.1
2017-May-30 05:37 313 16.1
2017-May-30 05:32 313 16.1
2017-May-30 05:27 313 15.6
2017-May-30 05:22 313 15.6
2017-May-30 05:17 313 15.6
2017-May-30 05:12 313 0 gusting 3 15.6
2017-May-30 05:07 313 15.6
2017-May-30 05:02 313 0 gusting 3 15.6
2017-May-30 04:57 313 0 gusting 3 15.6
2017-May-30 04:52 313 0 gusting 1 15.6
2017-May-30 04:47 306 0 gusting 1 16.1
2017-May-30 04:42 338 16.1
2017-May-30 04:37 338 16.1
2017-May-30 04:32 341 16.1
2017-May-30 04:27 341 16.7
2017-May-30 04:22 341 16.7
2017-May-30 04:17 341 16.7
2017-May-30 04:12 341 16.7
2017-May-30 04:07 341 16.7
2017-May-30 04:02 341 16.7
2017-May-30 03:57 341 16.7
2017-May-30 03:52 341 16.7
2017-May-30 03:47 341 16.7
2017-May-30 03:42 341 16.7
2017-May-30 03:37 341 16.7
2017-May-30 03:32 341 16.7
2017-May-30 03:27 341 16.7
2017-May-30 03:22 341 16.7
2017-May-30 03:17 341 16.7
2017-May-30 03:12 341 0 gusting 2 16.7
2017-May-30 03:07 341 0 gusting 2 16.7
2017-May-30 03:02 341 16.7
2017-May-30 02:57 341 17.2
2017-May-30 02:52 341 17.2
2017-May-30 02:47 341 17.2
2017-May-30 02:42 341 17.2
2017-May-30 02:37 341 17.2
2017-May-30 02:32 341 17.8
2017-May-30 02:27 341 17.8
2017-May-30 02:22 341 18.3
2017-May-30 02:17 220 18.3
2017-May-30 02:12 220 18.3
2017-May-30 02:07 221 18.3
2017-May-30 02:02 220 0 gusting 6 18.3
2017-May-30 01:57 220 1 gusting 6 18.3
2017-May-30 01:52 217 1 gusting 6 18.3
2017-May-30 01:47 242 2 gusting 6 18.3
2017-May-30 01:42 240 1 gusting 5 18.3
2017-May-30 01:37 226 1 gusting 5 18.3
2017-May-30 01:32 219 2 gusting 5 18.3
2017-May-30 01:27 219 2 gusting 5 18.3
2017-May-30 01:22 201 1 gusting 3 18.9
2017-May-30 01:17 227 0 gusting 3 18.9
2017-May-30 01:12 227 0 gusting 4 18.3
2017-May-30 01:07 227 0 gusting 4 18.3
2017-May-30 01:02 227 0 gusting 4 18.3
2017-May-30 00:57 227 1 gusting 4 18.3
2017-May-30 00:52 226 1 gusting 5 18.3
2017-May-30 00:47 207 1 gusting 5 18.3
2017-May-30 00:42 207 1 gusting 5 18.3
2017-May-30 00:37 219 1 gusting 2 18.3
2017-May-30 00:32 249 18.3
2017-May-30 00:27 251 18.3
2017-May-30 00:22 251 0 gusting 3 18.3
2017-May-30 00:17 251 0 gusting 4 18.3
2017-May-30 00:12 251 0 gusting 4 18.3
2017-May-30 00:07 251 0 gusting 4 18.3
2017-May-30 00:02 257 0 gusting 5 18.3
2017-May-29 23:57 227 0 gusting 5 18.9
2017-May-29 23:52 227 1 gusting 3 18.9
2017-May-29 23:47 206 1 gusting 3 18.9
2017-May-29 23:42 215 0 gusting 5 18.9
2017-May-29 23:37 216 1 gusting 6 18.9
2017-May-29 23:32 194 2 gusting 6 18.9
2017-May-29 23:27 169 3 gusting 6 18.9
2017-May-29 23:22 184 2 gusting 6 18.9
2017-May-29 23:17 178 2 gusting 6 18.9
2017-May-29 23:12 213 2 gusting 6 18.9
2017-May-29 23:07 178 2 gusting 6 18.9
2017-May-29 23:02 190 2 gusting 4 19.4
2017-May-29 22:57 191 1 gusting 4 19.4
2017-May-29 22:52 215 1 gusting 6 19.4
2017-May-29 22:47 189 2 gusting 6 19.4
2017-May-29 22:42 196 2 gusting 6 19.4
2017-May-29 22:37 189 2 gusting 6 19.4
2017-May-29 22:32 193 3 gusting 6 19.4
2017-May-29 22:27 174 2 gusting 6 19.4
2017-May-29 22:22 181 2 gusting 6 20.0
2017-May-29 22:17 146 1 gusting 6 20.0
2017-May-29 22:12 170 1 gusting 4 20.0
2017-May-29 22:07 161 0 gusting 4 20.0
2017-May-29 22:02 153 0 gusting 4 20.0
2017-May-29 21:57 187 0 gusting 4 20.0
2017-May-29 21:52 178 0 gusting 6 20.0
2017-May-29 21:47 178 0 gusting 6 20.0
2017-May-29 21:42 218 1 gusting 6 20.6
2017-May-29 21:37 218 2 gusting 6 20.6
2017-May-29 21:32 204 3 gusting 5 20.6
2017-May-29 21:27 217 1 gusting 5 20.6
2017-May-29 21:22 215 0 gusting 6 20.6
2017-May-29 21:17 224 1 gusting 6 20.6
2017-May-29 21:12 224 1 gusting 6 20.6
2017-May-29 21:07 234 2 gusting 6 20.6
2017-May-29 21:02 213 3 gusting 5 20.6
2017-May-29 20:57 234 2 gusting 5 21.1
2017-May-29 20:52 232 2 gusting 6 21.1
2017-May-29 20:47 225 2 gusting 6 21.1
2017-May-29 20:42 277 1 gusting 6 21.1
2017-May-29 20:37 228 1 gusting 6 21.1
2017-May-29 20:32 238 2 gusting 6 21.1
2017-May-29 20:27 240 3 gusting 6 21.7
2017-May-29 20:22 254 3 gusting 6 21.7
2017-May-29 20:17 239 2 gusting 6 21.7
2017-May-29 20:12 267 2 gusting 9 21.7
2017-May-29 20:07 209 2 gusting 9 21.7
2017-May-29 20:02 236 4 gusting 9 22.2
2017-May-29 19:57 222 4 gusting 9 22.2
2017-May-29 19:52 286 3 gusting 7 22.2
2017-May-29 19:47 261 2 gusting 7 22.2
2017-May-29 19:42 248 3 gusting 9 22.8
2017-May-29 19:37 232 4 gusting 9 22.8
2017-May-29 19:32 248 3 gusting 10 22.8
2017-May-29 19:27 223 3 gusting 10 22.8
2017-May-29 19:22 279 4 gusting 11 23.3
2017-May-29 19:17 236 6 gusting 11 23.3
2017-May-29 19:12 251 5 gusting 11 23.3
2017-May-29 19:07 250 5 gusting 11 23.3
2017-May-29 19:02 219 4 gusting 10 23.9
2017-May-29 18:57 216 4 gusting 10 23.9
2017-May-29 18:52 211 5 gusting 13 23.9
2017-May-29 18:47 246 6 gusting 13 23.9
2017-May-29 18:42 193 5 gusting 12 23.9
2017-May-29 18:37 215 5 gusting 12 23.9
2017-May-29 18:32 232 6 gusting 12 23.9
2017-May-29 18:27 225 5 gusting 12 23.9
2017-May-29 18:22 200 5 gusting 11 23.9
2017-May-29 18:17 213 4 gusting 13 23.9
2017-May-29 18:12 228 4 gusting 13 24.4
2017-May-29 18:07 253 5 gusting 13 24.4
2017-May-29 18:02 260 5 gusting 13 24.4
2017-May-29 17:57 277 6 gusting 13 24.4
2017-May-29 17:52 210 7 gusting 13 24.4
2017-May-29 17:47 230 7 gusting 13 24.4
2017-May-29 17:42 265 6 gusting 12 24.4
2017-May-29 17:37 225 5 gusting 12 24.4
2017-May-29 17:32 218 5 gusting 13 24.4
2017-May-29 17:27 250 6 gusting 13 24.4
2017-May-29 17:22 274 6 gusting 14 24.4
2017-May-29 17:17 223 7 gusting 14 24.4
2017-May-29 17:12 213 7 gusting 12 24.4
2017-May-29 17:07 219 6 gusting 12 24.4
2017-May-29 17:02 235 6 gusting 13 24.4
2017-May-29 16:57 215 6 gusting 13 24.4
2017-May-29 16:52 214 6 gusting 12 24.4
2017-May-29 16:47 238 6 gusting 12 24.4
2017-May-29 16:42 243 6 gusting 14 24.4
2017-May-29 16:37 202 7 gusting 14 24.4
2017-May-29 16:32 204 7 gusting 14 24.4
2017-May-29 16:27 189 6 gusting 14 24.4
2017-May-29 16:22 227 6 gusting 14 24.4
2017-May-29 16:17 221 6 gusting 14 24.4
2017-May-29 16:12 217 6 gusting 13 24.4
2017-May-29 16:07 201 7 gusting 13 24.4
2017-May-29 16:02 209 8 gusting 13 24.4
2017-May-29 15:57 221 6 gusting 13 24.4
2017-May-29 15:52 183 6 gusting 13 25.0
2017-May-29 15:47 234 6 gusting 13 25.0
2017-May-29 15:42 187 6 gusting 12 25.0
2017-May-29 15:37 186 6 gusting 12 25.0
2017-May-29 15:32 193 6 gusting 13 25.0
2017-May-29 15:27 209 6 gusting 13 25.0
2017-May-29 15:22 226 3 gusting 9 25.6
2017-May-29 15:17 238 3 gusting 9 25.6
2017-May-29 15:12 227 5 gusting 11 25.0
2017-May-29 15:07 221 5 gusting 11 25.6
2017-May-29 15:02 202 5 gusting 10 25.6
2017-May-29 14:57 202 5 gusting 10 25.6
2017-May-29 14:52 276 6 gusting 13 25.0
2017-May-29 14:47 205 6 gusting 13 25.0
2017-May-29 14:42 205 6 gusting 13 25.0
2017-May-29 14:37 193 7 gusting 13 24.4
2017-May-29 14:32 200 8 gusting 15 24.4
2017-May-29 14:27 219 8 gusting 15 24.4
2017-May-29 14:22 228 8 gusting 16 25.0
2017-May-29 14:17 159 8 gusting 16 25.0
2017-May-29 14:12 197 7 gusting 12 25.0
2017-May-29 14:07 173 6 gusting 12 25.6
2017-May-29 14:02 186 6 gusting 13 25.6
2017-May-29 13:57 188 7 gusting 13 25.6
2017-May-29 13:52 208 7 gusting 13 25.6
2017-May-29 13:47 184 6 gusting 13 25.6
2017-May-29 13:42 140 6 gusting 10 25.6
2017-May-29 13:37 249 5 gusting 10 25.0
2017-May-29 13:32 204 5 gusting 11 25.0
2017-May-29 13:27 192 6 gusting 11 24.4
2017-May-29 13:22 187 6 gusting 13 25.0
2017-May-29 13:17 169 5 gusting 13 25.0
2017-May-29 13:12 144 6 gusting 10 25.0
2017-May-29 13:07 190 6 gusting 10 24.4
2017-May-29 13:02 152 5 gusting 10 24.4
2017-May-29 12:57 133 5 gusting 10 24.4
2017-May-29 12:52 170 4 gusting 9 24.4
2017-May-29 12:47 207 3 gusting 9 24.4
2017-May-29 12:42 265 4 gusting 7 24.4
2017-May-29 12:37 221 3 gusting 7 24.4
2017-May-29 12:32 221 2 gusting 6 24.4
2017-May-29 12:27 117 1 gusting 6 24.4
2017-May-29 12:22 163 2 gusting 7 23.9
2017-May-29 12:17 190 3 gusting 7 23.9
2017-May-29 12:12 223 3 gusting 5 23.9
2017-May-29 12:07 253 1 gusting 5 23.9
2017-May-29 12:02 200 1 gusting 6 23.9
2017-May-29 11:57 111 1 gusting 6 23.9
2017-May-29 11:52 220 1 gusting 6 23.9
2017-May-29 11:47 163 0 gusting 6 23.9
2017-May-29 11:42 220 23.3
2017-May-29 11:37 076 0 gusting 6 23.3
2017-May-29 11:32 063 2 gusting 6 23.3
2017-May-29 11:27 172 1 gusting 6 23.3
2017-May-29 11:22 135 1 gusting 6 22.8
2017-May-29 11:17 244 1 gusting 6 22.8
2017-May-29 11:12 169 1 gusting 7 22.2
2017-May-29 11:07 049 3 gusting 7 22.2
2017-May-29 11:02 100 3 gusting 7 21.7
2017-May-29 10:57 101 2 gusting 7 21.7
2017-May-29 10:52 108 3 gusting 8 21.7
2017-May-29 10:47 123 5 gusting 8 21.7
2017-May-29 10:42 128 4 gusting 8 21.7
2017-May-29 10:37 117 3 gusting 8 21.1
2017-May-29 10:32 127 4 gusting 8 21.1
2017-May-29 10:27 142 4 gusting 8 20.6
2017-May-29 10:22 182 4 gusting 7 20.6
2017-May-29 10:17 113 4 gusting 7 20.0
2017-May-29 10:12 180 4 gusting 9 20.0
2017-May-29 10:07 159 4 gusting 9 19.4
2017-May-29 10:02 150 5 gusting 8 19.4
2017-May-29 09:57 187 5 gusting 8 19.4
2017-May-29 09:52 165 5 gusting 10 19.4
2017-May-29 09:47 192 5 gusting 10 19.4
2017-May-29 09:42 159 5 gusting 8 18.9
2017-May-29 09:37 179 4 gusting 8 18.9
2017-May-29 09:32 144 4 gusting 7 18.9
2017-May-29 09:27 146 3 gusting 7 18.9
2017-May-29 09:22 156 2 gusting 8 18.9
2017-May-29 09:17 139 3 gusting 8 18.9
2017-May-29 09:12 108 4 gusting 7 18.9
2017-May-29 09:07 158 3 gusting 7 18.9
2017-May-29 09:02 175 3 gusting 7 18.9
2017-May-29 08:57 183 3 gusting 7 18.9
2017-May-29 08:52 186 3 gusting 6 18.9
2017-May-29 08:47 179 3 gusting 6 19.4
2017-May-29 08:42 170 3 gusting 6 19.4
2017-May-29 08:37 158 2 gusting 6 19.4
2017-May-29 08:32 188 0 gusting 2 19.4
2017-May-29 08:27 088 19.4
2017-May-29 08:22 088 19.4
2017-May-29 08:17 089 19.4
2017-May-29 08:12 088 0 gusting 4 19.4
2017-May-29 08:07 086 0 gusting 4 19.4
2017-May-29 08:02 086 0 gusting 4 19.4
2017-May-29 07:57 088 0 gusting 4 19.4
2017-May-29 07:52 070 0 gusting 1 19.4
2017-May-29 07:47 070 19.4
2017-May-29 07:42 070 19.4
2017-May-29 07:37 070 0 gusting 2 19.4
2017-May-29 07:32 070 0 gusting 2 19.4
2017-May-29 07:27 070 0 gusting 2 19.4
2017-May-29 07:22 065 0 gusting 3 18.9
2017-May-29 07:17 065 0 gusting 3 18.9
2017-May-29 07:12 065 1 gusting 4 18.3
2017-May-29 07:07 065 2 gusting 4 18.3
2017-May-29 07:02 054 1 gusting 3 18.3
2017-May-29 06:57 355 1 gusting 3 18.3
2017-May-29 06:52 028 0 gusting 3 18.3
2017-May-29 06:47 071 0 gusting 3 18.3
2017-May-29 06:42 070 0 gusting 2 18.3
2017-May-29 06:37 071 0 gusting 2 18.3
2017-May-29 06:32 071 0 gusting 2 17.8
2017-May-29 06:27 071 0 gusting 2 17.8
2017-May-29 06:22 070 17.8
2017-May-29 06:17 071 17.8
2017-May-29 06:12 070 0 gusting 2 17.2
2017-May-29 06:07 071 0 gusting 2 17.2
2017-May-29 06:02 071 0 17.2
2017-May-29 05:57 073 17.2
2017-May-29 05:52 073 17.2
2017-May-29 05:47 073 17.2
2017-May-29 05:42 073 17.2
2017-May-29 05:37 074 17.2
2017-May-29 05:32 073 17.2
2017-May-29 05:27 073 17.2
2017-May-29 05:22 074 17.2
2017-May-29 05:17 073 17.2
2017-May-29 05:12 073 17.2
2017-May-29 05:07 074 17.2
2017-May-29 05:02 073 17.2
2017-May-29 04:57 073 17.2
2017-May-29 04:52 074 17.2
2017-May-29 04:47 074 17.2
2017-May-29 04:42 073 17.2
2017-May-29 04:37 073 17.2
2017-May-29 04:32 074 17.2
2017-May-29 04:27 074 0 gusting 2 16.7
2017-May-29 04:22 074 0 gusting 3 16.7
2017-May-29 04:17 074 1 gusting 3 16.7
2017-May-29 04:12 074 0 gusting 2 16.7
2017-May-29 04:07 16.7
2017-May-29 04:02 355 16.7
2017-May-29 03:57 294 16.7
2017-May-29 03:52 294 16.7
2017-May-29 03:47 294 16.7
2017-May-29 03:42 294 16.7
2017-May-29 03:37 294 16.7
2017-May-29 03:32 294 16.7
2017-May-29 03:27 294 16.7
2017-May-29 03:22 294 16.7
2017-May-29 03:17 294 16.7
2017-May-29 03:12 294 16.7
2017-May-29 03:07 294 16.7
2017-May-29 03:02 294 16.7
2017-May-29 02:57 294 17.2
2017-May-29 02:52 294 17.2
2017-May-29 02:47 294 17.2
2017-May-29 02:42 294 17.2
2017-May-29 02:37 294 17.8
2017-May-29 02:32 294 17.8
2017-May-29 02:27 294 17.2
2017-May-29 02:22 294 17.2
2017-May-29 02:17 294 17.2
2017-May-29 02:12 294 17.2
2017-May-29 02:07 294 17.2
2017-May-29 02:02 294 17.2
2017-May-29 01:57 294 17.2
2017-May-29 01:52 294 17.2
2017-May-29 01:47 294 17.2
2017-May-29 01:42 294 17.2
2017-May-29 01:37 294 17.8
2017-May-29 01:32 294 0 gusting 4 17.8
2017-May-29 01:27 294 0 gusting 4 17.8
2017-May-29 01:22 254 0 gusting 4 18.3
2017-May-29 01:17 244 1 gusting 4 18.3
2017-May-29 01:12 226 2 gusting 6 18.3
2017-May-29 01:07 250 2 gusting 6 18.3
2017-May-29 01:02 269 3 gusting 6 18.3
2017-May-29 00:57 201 3 gusting 6 18.3
2017-May-29 00:52 245 3 gusting 7 18.3
2017-May-29 00:47 224 4 gusting 7 18.3
2017-May-29 00:42 241 5 gusting 7 18.3
2017-May-29 00:37 217 4 gusting 7 18.3
2017-May-29 00:32 227 5 gusting 7 18.3
2017-May-29 00:27 216 5 gusting 7 18.3
2017-May-29 00:22 209 5 gusting 7 18.3
2017-May-29 00:17 227 5 gusting 8 18.3
2017-May-29 00:12 215 5 gusting 9 18.3
2017-May-29 00:07 219 6 gusting 9 18.3
2017-May-29 00:02 235 6 gusting 9 18.3
2017-May-28 23:57 220 6 gusting 9 18.3
2017-May-28 23:52 227 6 gusting 9 18.3
2017-May-28 23:47 227 6 gusting 9 18.9
2017-May-28 23:42 223 6 gusting 9 18.9
2017-May-28 23:37 205 6 gusting 9 18.9
2017-May-28 23:32 240 5 gusting 10 18.9
2017-May-28 23:27 236 4 gusting 10 18.9
2017-May-28 23:22 220 5 gusting 10 18.9
2017-May-28 23:17 242 5 gusting 10 18.9
2017-May-28 23:12 233 4 gusting 11 18.9
2017-May-28 23:07 273 4 gusting 11 18.9
2017-May-28 23:02 225 5 gusting 8 18.9
2017-May-28 22:57 247 4 gusting 8 18.9
2017-May-28 22:52 284 3 gusting 7 19.4
2017-May-28 22:47 279 4 gusting 7 19.4
2017-May-28 22:42 248 4 gusting 9 19.4
2017-May-28 22:37 219 4 gusting 9 19.4
2017-May-28 22:32 267 4 gusting 11 19.4
2017-May-28 22:27 233 4 gusting 11 19.4
2017-May-28 22:22 238 4 gusting 11 19.4
2017-May-28 22:17 245 5 gusting 11 19.4
2017-May-28 22:12 219 4 gusting 12 19.4
2017-May-28 22:07 244 4 gusting 12 19.4
2017-May-28 22:02 214 4 gusting 12 20.0
2017-May-28 21:57 228 4 gusting 12 20.0
2017-May-28 21:52 290 5 gusting 10 20.0
2017-May-28 21:47 242 4 gusting 10 20.0
2017-May-28 21:42 269 5 gusting 9 20.0
2017-May-28 21:37 212 4 gusting 9 20.0
2017-May-28 21:32 215 5 gusting 11 20.0
2017-May-28 21:27 277 5 gusting 11 20.0
2017-May-28 21:22 219 5 gusting 11 20.0
2017-May-28 21:17 243 5 gusting 11 20.6
2017-May-28 21:12 250 5 gusting 9 20.6
2017-May-28 21:07 228 5 gusting 9 20.6
2017-May-28 21:02 235 5 gusting 9 20.6
2017-May-28 20:57 217 5 gusting 9 20.6
2017-May-28 20:52 212 5 gusting 12 20.6
2017-May-28 20:47 238 5 gusting 12 20.6
2017-May-28 20:42 270 5 gusting 7 20.6
2017-May-28 20:37 252 3 gusting 7 21.1
2017-May-28 20:32 224 3 gusting 10 21.1
2017-May-28 20:27 252 4 gusting 10 21.1
2017-May-28 20:22 234 5 gusting 10 21.1
2017-May-28 20:17 213 5 gusting 10 21.1
2017-May-28 20:12 228 4 gusting 12 21.7
2017-May-28 20:07 236 5 gusting 12 21.7
2017-May-28 20:02 235 5 gusting 12 21.7
2017-May-28 19:57 238 6 gusting 12 21.7
2017-May-28 19:52 209 6 gusting 12 21.7
2017-May-28 19:47 221 6 gusting 12 21.7
2017-May-28 19:42 205 6 gusting 13 21.7
2017-May-28 19:37 268 6 gusting 13 21.7
2017-May-28 19:32 209 6 gusting 13 22.2
2017-May-28 19:27 216 6 gusting 13 22.2
2017-May-28 19:22 217 6 gusting 13 22.2
2017-May-28 19:17 265 6 gusting 13 22.2
2017-May-28 19:12 223 5 gusting 13 22.8
2017-May-28 19:07 257 5 gusting 13 22.8
2017-May-28 19:02 232 6 gusting 14 22.8
2017-May-28 18:57 238 6 gusting 14 22.8
2017-May-28 18:52 207 7 gusting 14 22.8
2017-May-28 18:47 209 7 gusting 14 22.8
2017-May-28 18:42 232 7 gusting 13 22.8
2017-May-28 18:37 217 6 gusting 13 23.3
2017-May-28 18:32 233 6 gusting 13 23.3
2017-May-28 18:27 257 6 gusting 13 23.3
2017-May-28 18:22 216 6 gusting 11 23.3
2017-May-28 18:17 221 6 gusting 11 23.9
2017-May-28 18:12 259 6 gusting 11 23.9
2017-May-28 18:07 265 5 gusting 11 23.9
2017-May-28 18:02 245 5 gusting 11 23.9
2017-May-28 17:57 221 6 gusting 11 24.4
2017-May-28 17:52 238 5 gusting 13 24.4
2017-May-28 17:47 217 6 gusting 13 24.4
2017-May-28 17:42 215 6 gusting 12 24.4
2017-May-28 17:37 241 6 gusting 12 24.4
2017-May-28 17:32 219 6 gusting 13 24.4
2017-May-28 17:27 261 6 gusting 13 24.4
2017-May-28 17:22 249 6 gusting 13 24.4
2017-May-28 17:17 210 6 gusting 13 24.4
2017-May-28 17:12 227 6 gusting 14 25.0
2017-May-28 17:07 223 6 gusting 14 25.0
2017-May-28 17:02 206 6 gusting 13 25.0
2017-May-28 16:57 189 7 gusting 13 25.0
2017-May-28 16:52 205 6 gusting 10 25.0
2017-May-28 16:47 184 5 gusting 10 25.6
2017-May-28 16:42 256 6 gusting 13 25.6
2017-May-28 16:37 207 7 gusting 13 25.6
2017-May-28 16:32 191 7 gusting 12 25.6
2017-May-28 16:27 225 6 gusting 12 25.6
2017-May-28 16:22 186 6 gusting 17 25.6
2017-May-28 16:17 254 6 gusting 17 25.6
2017-May-28 16:12 250 6 gusting 17 25.6
2017-May-28 16:07 225 6 gusting 17 25.6
2017-May-28 16:02 210 6 gusting 14 25.6
2017-May-28 15:57 216 7 gusting 14 25.6
2017-May-28 15:52 211 7 gusting 16 25.6
2017-May-28 15:47 235 7 gusting 16 25.6
2017-May-28 15:42 244 7 gusting 14 25.6
2017-May-28 15:37 219 6 gusting 14 25.6
2017-May-28 15:32 231 7 gusting 17 25.6
2017-May-28 15:27 215 8 gusting 17 25.6
2017-May-28 15:22 271 7 gusting 17 25.6
2017-May-28 15:17 216 7 gusting 17 25.6
2017-May-28 15:12 219 6 gusting 14 25.6
2017-May-28 15:07 256 6 gusting 14 25.6
2017-May-28 15:02 180 7 gusting 16 25.6
2017-May-28 14:57 224 7 gusting 16 25.6
2017-May-28 14:52 254 8 gusting 16 25.6
2017-May-28 14:47 242 9 gusting 16 25.6
2017-May-28 14:42 202 8 gusting 15 25.6
2017-May-28 14:37 216 7 gusting 15 25.6
2017-May-28 14:32 193 7 gusting 14 25.6
2017-May-28 14:27 212 7 gusting 14 25.6
2017-May-28 14:22 290 7 gusting 18 25.6
2017-May-28 14:17 210 6 gusting 18 25.6
2017-May-28 14:12 217 7 gusting 18 25.6
2017-May-28 14:07 209 7 gusting 18 25.6
2017-May-28 14:02 183 6 gusting 14 25.6
2017-May-28 13:57 205 6 gusting 14 25.6
2017-May-28 13:52 229 7 gusting 17 25.6
2017-May-28 13:47 259 7 gusting 17 25.6
2017-May-28 13:42 172 6 gusting 13 25.6
2017-May-28 13:37 235 6 gusting 13 25.6
2017-May-28 13:32 218 6 gusting 13 25.6
2017-May-28 13:27 271 6 gusting 13 25.0
2017-May-28 13:22 202 6 gusting 13 25.0
2017-May-28 13:17 158 5 gusting 13 25.0
2017-May-28 13:12 177 6 gusting 13 25.0
2017-May-28 13:07 192 6 gusting 13 24.4
2017-May-28 13:02 178 6 gusting 13 24.4